Last 24 Hours

Squaw-Belmont 8000'

Hourly Data | America/Los_Angeles
as of 10/27/20 8:04 PM PDT
Date & Time Temp (°F) RH (%) Dew Pt (°F) Wet Bulb (°F) Wind Dir (°) Wind Spd (mph) Wind Gust (mph) WindChill (°F) Latest Rain (In) Daily Min Temp (°F) Daily Max Temp (°F) Daily Rain (In)
10/27/20 - 2000 40.9 40 18.3 31.8 E | 81 6.2 13.8 38.2 0.00 28.7 52.1 0.00
10/27/20 - 1900 43.0 36 17.9 32.8 ENE | 69 5.8 16.4 40.6 0.00 28.7 52.1 0.00
10/27/20 - 1800 45.2 29 15.1 33.3 ENE | 69 5.9 17.0 43.0 0.00 28.7 52.1 0.00
10/27/20 - 1700 46.8 26 13.8 33.8 E | 79 3.4 10.5 46.4 0.00 28.7 52.1 0.00
10/27/20 - 1600 48.3 26 15.2 34.9 ENE | 71 5.2 16.8 46.4 0.00 28.7 52.1 0.00
10/27/20 - 1500 50.0 28 18.3 36.6 ENE | 78 5.6 18.7 48.4 0.00 28.7 52.1 0.00
10/27/20 - 1400 50.8 37 25.4 39.0 E | 93 5.3 12.9 47.2 0.00 28.7 51.2 0.00
10/27/20 - 1300 46.6 41 24.3 36.6 ENE | 70 6.2 16.9 42.5 0.00 28.7 46.9 0.00
10/27/20 - 1200 45.3 42 23.6 35.7 ENE | 60 7.1 18.4 39.0 0.00 28.7 45.8 0.00
10/27/20 - 1100 41.7 44 21.4 33.2 ENE | 77 7.7 16.2 35.3 0.00 28.7 41.8 0.00
10/27/20 - 1000 39.4 47 20.8 31.8 ENE | 78 7.4 17.4 31.8 0.00 28.7 39.4 0.00
10/27/20 - 0900 34.9 53 19.7 28.9 ENE | 69 6.1 12.6 28.7 0.00 28.7 35.0 0.00
10/27/20 - 0800 32.8 54 17.8 27.1 ENE | 71 5.9 15.4 26.8 0.00 28.7 33.0 0.00
10/27/20 - 0700 31.4 46 13.1 25.0 ENE | 63 10.5 18.1 22.7 0.00 28.7 31.7 0.00
10/27/20 - 0600 30.5 38 8.2 23.3 ENE | 61 11.0 19.1 21.0 0.00 28.7 31.5 0.00
10/27/20 - 0500 29.9 31 3.0 21.9 ENE | 61 12.4 21.2 19.8 0.00 28.7 31.5 0.00
10/27/20 - 0400 30.1 30 2.2 21.9 ENE | 62 11.0 22.2 20.1 0.00 28.7 31.5 0.00
10/27/20 - 0300 29.6 26 -1.0 21.1 ENE | 66 14.3 22.2 20.3 0.00 29.5 31.5 0.00
10/27/20 - 0200 31.4 26 0.3 22.4 ENE | 62 8.5 15.6 23.7 0.00 30.2 31.5 0.00
10/27/20 - 0100 30.7 24 -1.9 21.7 ENE | 57 7.6 15.1 23.7 0.00 30.2 31.0 0.00
10/27/20 - 0000 31.0 20 -5.3 21.3 NE | 55 8.7 18.8 22.9 0.00 16.5 40.6 0.00
10/26/20 - 2300 30.2 21 -4.9 20.9 ENE | 60 8.2 18.0 22.8 0.00 16.5 40.6 0.00
10/26/20 - 2200 29.9 20 -6.6 20.5 NE | 56 10.0 18.7 21.6 0.00 16.5 40.6 0.00
10/26/20 - 2100 29.9 21 -5.7 20.6 ENE | 57 8.5 17.5 22.6 0.00 16.5 40.6 0.00
10/26/20 - 2000 30.3 20 -6.0 20.8 ENE | 58 10.2 21.3 22.4 0.00 16.5 40.6 0.00
Max 50.8 54 25.4 39.0 - 14.3 22.2 48.4 0.00 30.2 52.1 0.00
Avg 37.2 33 9.9 27.9 - 7.9 17.2 31.1 0.00 - - -
Min 29.6 20 -6.6 20.5 - 3.4 10.5 19.8 0.00 16.5 31.0 0.00
Total - - - - - - - - 0.00 - - -